Regional Weather Roundup
Issued by NWS

Home | Current Version | Previous Version | Graphics & Text | Print | Product List | Glossary On
Versions: 1 2 3 4 5 6 7 8 9 10 11 12 13 14 15 16 17 18 19 20 21 22 23 24 25 26 27 28 29 30 31 32 33 34 35 36 37 38 39 40 41 42 43 44 45 46 47 48 49 50
000
ASUS43 KLOT 220208
RWRIL

ILLINOIS REGIONAL WEATHER ROUNDUP
NATIONAL WEATHER SERVICE CHICAGO/ROMEOVILLE IL
900 PM CDT MON AUG 21 2017

NOTE: "FAIR" INDICATES FEW OR NO CLOUDS BELOW 12,000 FEET WITH NO
SIGNIFICANT WEATHER AND/OR OBSTRUCTIONS TO VISIBILITY.

* THESE STATIONS ARE NOT UNDER NWS QUALITY CONTROL. THEY ALSO MAY NOT
  REPORT WEATHER SUCH AS PRECIPITATION OR FOG.

ILZ001-002-007-009-015-016-024-220300-
NORTHWEST ILLINOIS

CITY           SKY/WX    TMP DP  RH WIND       PRES   REMARKS
MOLINE         CLOUDY    76  71  85 VRB7      29.95F
STERLING*      CLOUDY    74  71  91 CALM      29.97F
SAVANNA*       CLOUDY    75  70  83 S12       29.94S
$$

ILZ003-004-008-010-011-017-018-220300-
NORTH CENTRAL ILLINOIS

CITY           SKY/WX    TMP DP  RH WIND       PRES   REMARKS
ROCKFORD       CLOUDY    73  70  90 S7        29.95F
FREEPORT*      CLOUDY    72  70  92 S8        29.97S
ROCHELLE*      CLOUDY    72  70  95 S6        29.98S
DE KALB*       CLOUDY    74  70  88 SW7       29.98F
PERU*          CLOUDY    73  69  88 CALM      29.98R
$$

ILZ005-006-012>014-019>023-220300-
NORTHEAST ILLINOIS

CITY           SKY/WX    TMP DP  RH WIND       PRES   REMARKS
CHICAGO-OHARE  CLOUDY    79  66  64 SW7G16    29.95F HX  81
CHICAGO-MIDWAY CLOUDY    78  71  79 SW7       29.96F HX  80
AURORA         MOCLDY    74  70  87 SW6       29.98S
LANSING*       MOCLDY    74  70  85 S7        29.97F
JOLIET*        MOCLDY    76  72  85 CALM      29.97S
WAUKEGAN       MOCLDY    76  69  79 SW7       29.94S
DUPAGE AIRPORT MOCLDY    75  70  84 SW6       29.96F
KANKAKEE*      PTCLDY    75  72  88 S3        30.00F
WHEELING       CLOUDY    79  69  71 SW10G20   29.96F HX  81
MORRIS*        PTCLDY    73  69  87 CALM      29.96S
ROMEOVILLE*    CLOUDY    73  68  84 SW5       29.98S
NORTHERLY ISL    N/A     78  68  71 S5          N/A  HX  80
$$

LMZ740>746-220300-
SOUTHERN LAKE MICHIGAN

STATION/POSITION SKY/WX   TEMP    WIND        PRES    VSBY  WAVE
                          AIR SEA DIR/SP/G                  HT/PER
                          (F)     (DEG/KT/KT) (MB)    (MI)  (FT/S)
SOUTHERN BUOY              75 72  200/ 12/ 14 1013.5F         1/ 3
WILMETTE HARBOR            79 74  220/ 14/ 17   N/A           2/ 3
HARRISON CRIB              79     210/ 15/ 16   N/A
CALUMET HARBOR             78     190/  5/  9 1014.1F
BURNS HARBOR               79     190/  8/ 10 1015.2F
MICHIGAN CITY              79     180/  8/  9   N/A
MICHIGAN CITY 6N           77 75  180/  6/  8   N/A           1/ 2
ST. JOSEPH                 77 74  190/  8/ 10 1014.3          1
$$

ILZ025>027-034>036-040-047-049-050-058-095>099-220300-
WEST-CENTRAL ILLINOIS

CITY           SKY/WX    TMP DP  RH WIND       PRES   REMARKS
QUINCY         CLOUDY    72  68  87 S8        29.94F
GALESBURG*     CLOUDY    73  71  96 CALM      29.99S
MACOMB*        LGT RAIN  73  70  90 CALM      29.99F
JACKSONVILLE*  LGT RAIN  77  73  88 SW6       29.99F
PITTSFIELD*    CLOUDY    74  72  93 S6        29.99F
$$

ILZ028>032-037-038-041>044-048-051>054-059>061-220300-
CENTRAL ILLINOIS

CITY           SKY/WX    TMP DP  RH WIND       PRES   REMARKS
PONTIAC        CLOUDY    76  74  93 S6        29.99S
BLOOMINGTON    CLOUDY    76  72  87 S10       30.01S
DECATUR        CLOUDY    77  70  79 S10       30.01F
PEORIA         CLOUDY    77  74  90 S8        29.97F
LACON*         CLOUDY    75  73  91 S6        29.96S
LINCOLN*       CLOUDY    78  76  94 S7        29.99S HX  80
SPRINGFIELD    PTCLDY    79  74  84 S7        29.99F HX  82
TAYLORVILLE    PTCLDY    74  70  87 S8        30.02S
$$

ILZ033-039-045-046-055>057-062-063-220300-
EAST-CENTRAL ILLINOIS

CITY           SKY/WX    TMP DP  RH WIND       PRES   REMARKS
CHAMPAIGN      CLOUDY    76  72  87 S9        30.02F
RANTOUL*       CLOUDY    77  73  90 S7        30.01F
MATTOON        CLEAR     73  70  90 S10       30.03S
PARIS*         PTCLDY    71  68  90 S5        30.05F
$$

ILZ079-100>102-220300-
SOUTHWEST ILLINOIS

CITY           SKY/WX    TMP DP  RH WIND       PRES   REMARKS
ALTON          MOCLDY    75  73  94 VRB5      30.02R
BELLEVILLE     CLEAR     76  71  83 S3        30.03S
CAHOKIA*       CLEAR     79  72  79 S5        30.01S HX  82
SPARTA*        CLEAR     80  76  86 E8        30.05R HX  85
$$

ILZ064>066-069>071-074>076-080>082-084>086-088>090-092>094-220300-
SOUTH-CENTRAL ILLINOIS

CITY           SKY/WX    TMP DP  RH WIND       PRES   REMARKS
CARBONDALE     CLEAR     77  70  79 SE5       30.05R
CAIRO*         PTCLDY    76  72  88 E5        30.07S
EFFINGHAM*     CLEAR     73  71  95 SE6       30.06S
MARION         CLOUDY    81  75  83 E5        30.08R HX  86
MT. VERNON       N/A     73  71  93 SE5       30.06S
CENTRALIA*     CLEAR     74  72  96 SE8       30.04S
SALEM*         CLEAR     75  70  83 SE6       30.05S
METROPOLIS*    CLOUDY    79  73  80 W3        30.07S HX  83
$$

ILZ067-068-072-073-078-083-087-091-220300-
SOUTHEAST ILLINOIS

CITY           SKY/WX    TMP DP  RH WIND       PRES   REMARKS
LAWRENCEVILLE  CLOUDY    72  32  23 SE6       30.06R
FLORA*         PTCLDY    72  70  93 S6        30.06S
FAIRFIELD*     CLEAR     71  71 100 CALM      30.06S
HARRISBURG*    CLOUDY    75  72  88 SE3       30.08S
ROBINSON*      PTCLDY    69  68  98 CALM      30.06S
CARMI*         CLOUDY    72  71  98 E6        30.07S
$$

ABBREVIATIONS USED IN REMARKS
   TC - TEMPERATURE IN CELSIUS
  WCI - WIND CHILL INDEX
   HX - HEAT INDEX
  VSB - VISIBILITY
$$





USA.gov is the U.S. government's official web portal to all federal, state and local government web resources and services.